| time (UTC) | temp C | wind direction | speed KPH | gust KPH | rain 1hr cm | rain 24hr cm | rain mn cm | humidity % | barometer mb |
| 20260503031539 | 6 | 216 | 3.2 | 8.0 | 0.00 | 0.00 | 0.00 | 70 | 1017.8 |
| 20260503030045 | 7 | 219 | 1.6 | 6.4 | 0.00 | 0.00 | 0.00 | 65 | 1017.8 |
| 20260503024547 | 9 | 358 | 1.6 | 6.4 | 0.00 | 0.00 | 0.00 | 51 | 1017.8 |
| 20260503023040 | 9 | 0 | 0.0 | 4.8 | 0.00 | 0.00 | 0.00 | 52 | 1017.7 |
| 20260503021539 | 9 | 0 | 0.0 | 4.8 | 0.00 | 0.00 | 0.00 | 61 | 1017.4 |
| 20260503020039 | 8 | 0 | 0.0 | 3.2 | 0.00 | 0.00 | 0.00 | 70 | 1017.2 |
| 20260503014550 | 8 | 0 | 3.2 | 6.4 | 0.00 | 0.00 | 0.00 | 72 | 1017.1 |
| 20260503013042 | 8 | 222 | 3.2 | 8.0 | 0.00 | 0.00 | 0.00 | 71 | 1017.0 |
| 20260503011541 | 8 | 228 | 3.2 | 8.0 | 0.00 | 0.00 | 0.00 | 69 | 1016.7 |
| 20260503010040 | 9 | 220 | 1.6 | 6.4 | 0.00 | 0.00 | 0.00 | 67 | 1016.6 |
| 20260503004546 | 9 | 203 | 3.2 | 8.0 | 0.00 | 0.00 | 0.00 | 67 | 1016.4 |
| 20260503003051 | 9 | 185 | 3.2 | 6.4 | 0.00 | 0.00 | 0.00 | 65 | 1016.2 |
| 20260503001604 | 10 | 193 | 3.2 | 9.7 | 0.00 | 0.00 | 0.00 | 63 | 1016.0 |
| 20260503000047 | 10 | 218 | 3.2 | 8.0 | 0.00 | 0.00 | 0.00 | 62 | 1015.9 |
| 20260502234545 | 11 | 219 | 1.6 | 6.4 | 0.00 | 0.00 | 0.00 | 59 | 1015.7 |
| 20260502233038 | 11 | 228 | 1.6 | 8.0 | 0.00 | 0.00 | 0.00 | 53 | 1015.5 |
| 20260502231546 | 12 | 269 | 1.6 | 6.4 | 0.00 | 0.00 | 0.00 | 47 | 1015.5 |
| 20260502230046 | 12 | 243 | 3.2 | 9.7 | 0.00 | 0.00 | 0.00 | 44 | 1015.4 |
| 20260502224541 | 12 | 283 | 1.6 | 6.4 | 0.00 | 0.00 | 0.00 | 43 | 1015.4 |
| 20260502223041 | 12 | 243 | 3.2 | 9.7 | 0.00 | 0.00 | 0.00 | 43 | 1015.4 |
| 20260502221544 | 12 | 0 | 0.0 | 6.4 | 0.00 | 0.00 | 0.00 | 42 | 1015.4 |
| 20260502220046 | 12 | 0 | 1.6 | 9.7 | 0.00 | 0.00 | 0.00 | 39 | 1015.3 |
| 20260502214554 | 12 | 272 | 4.8 | 12.9 | 0.00 | 0.00 | 0.00 | 40 | 1015.3 |
| 20260502213041 | 12 | 208 | 0.0 | 11.3 | 0.00 | 0.00 | 0.00 | 43 | 1015.2 |
| 20260502211539 | 12 | 291 | 4.8 | 17.7 | 0.00 | 0.00 | 0.00 | 40 | 1015.1 |
| 20260502210046 | 12 | 287 | 3.2 | 12.9 | 0.00 | 0.00 | 0.00 | 40 | 1015.1 |
| 20260502204543 | 13 | 58 | 4.8 | 16.1 | 0.00 | 0.00 | 0.00 | 38 | 1015.1 |
| 20260502203040 | 13 | 18 | 3.2 | 12.9 | 0.00 | 0.00 | 0.00 | 39 | 1015.2 |
| 20260502201539 | 13 | 0 | 4.8 | 16.1 | 0.00 | 0.00 | 0.00 | 40 | 1015.3 |
| 20260502200039 | 13 | 281 | 4.8 | 17.7 | 0.00 | 0.00 | 0.00 | 39 | 1015.3 |
| 20260502194543 | 12 | 339 | 3.2 | 17.7 | 0.00 | 0.00 | 0.00 | 40 | 1015.6 |
| 20260502193042 | 13 | 4 | 4.8 | 14.5 | 0.00 | 0.00 | 0.00 | 39 | 1015.8 |
| 20260502191547 | 13 | 0 | 3.2 | 12.9 | 0.00 | 0.00 | 0.00 | 40 | 1016.0 |
| 20260502190044 | 12 | 249 | 3.2 | 14.5 | 0.00 | 0.00 | 0.00 | 43 | 1016.1 |
| 20260502184555 | 12 | 325 | 6.4 | 16.1 | 0.00 | 0.00 | 0.00 | 40 | 1016.2 |
| 20260502183045 | 12 | 278 | 1.6 | 12.9 | 0.00 | 0.00 | 0.00 | 40 | 1016.4 |
| 20260502181540 | 12 | 101 | 1.6 | 14.5 | 0.00 | 0.00 | 0.00 | 40 | 1016.2 |
| 20260502163049 | 13 | 74 | 4.8 | 14.5 | 0.00 | 0.00 | 0.00 | 43 | 1016.8 |
| 20260502161539 | 12 | 45 | 4.8 | 14.5 | 0.00 | 0.00 | 0.00 | 44 | 1017.0 |
| 20260502151539 | 12 | 28 | 1.6 | 12.9 | 0.00 | 0.00 | 0.00 | 54 | 1017.4 |
| 20260502123055 | 5 | 0 | 0.0 | 3.2 | 0.00 | 0.00 | 0.00 | 89 | 1017.6 |
| 20260502121543 | 4 | 229 | 1.6 | 4.8 | 0.00 | 0.00 | 0.00 | 90 | 1017.3 |
| 20260502114545 | 3 | 207 | 1.6 | 4.8 | 0.00 | 0.00 | 0.00 | 90 | 1017.6 |
| 20260502113044 | 3 | 216 | 1.6 | 6.4 | 0.00 | 0.00 | 0.00 | 89 | 1017.4 |
| 20260502111544 | 3 | 230 | 3.2 | 6.4 | 0.00 | 0.00 | 0.00 | 89 | 1017.3 |
| 20260502110040 | 3 | 234 | 3.2 | 6.4 | 0.00 | 0.00 | 0.00 | 89 | 1017.1 |
| 20260502104549 | 3 | 231 | 4.8 | 8.0 | 0.00 | 0.00 | 0.00 | 89 | 1017.2 |
| 20260502103043 | 3 | 234 | 3.2 | 8.0 | 0.00 | 0.00 | 0.00 | 89 | 1017.0 |
| 20260502101602 | 3 | 247 | 3.2 | 8.0 | 0.00 | 0.00 | 0.00 | 88 | 1017.4 |
| 20260502070051 | 5 | 235 | 6.4 | 11.3 | 0.00 | 0.00 | 0.00 | 82 | 1017.0 |
| 20260502064544 | 5 | 229 | 4.8 | 9.7 | 0.00 | 0.00 | 0.00 | 80 | 1017.0 |
| 20260502063041 | 6 | 245 | 4.8 | 9.7 | 0.00 | 0.00 | 0.00 | 78 | 1017.1 |
| 20260502061539 | 6 | 237 | 3.2 | 8.0 | 0.00 | 0.00 | 0.00 | 76 | 1017.4 |
| 20260502060043 | 6 | 218 | 4.8 | 11.3 | 0.00 | 0.00 | 0.00 | 75 | 1017.5 |
| 20260502054545 | 7 | 235 | 4.8 | 9.7 | 0.00 | 0.00 | 0.00 | 74 | 1017.3 |
| 20260502053105 | 7 | 221 | 3.2 | 9.7 | 0.00 | 0.00 | 0.00 | 73 | 1017.5 |
| 20260502051542 | 8 | 0 | 0.0 | 8.0 | 0.00 | 0.00 | 0.00 | 71 | 1017.4 |
| 20260502050039 | 8 | 0 | 0.0 | 3.2 | 0.00 | 0.00 | 0.00 | 69 | 1017.2 |
| 20260502044539 | 9 | 202 | 0.0 | 4.8 | 0.00 | 0.00 | 0.00 | 67 | 1017.3 |
| 20260502043042 | 10 | 222 | 1.6 | 4.8 | 0.00 | 0.00 | 0.00 | 63 | 1017.5 |
| 20260502041543 | 10 | 264 | 0.0 | 4.8 | 0.00 | 0.00 | 0.00 | 59 | 1017.5 |
| 20260502040045 | 10 | 356 | 1.6 | 8.0 | 0.00 | 0.00 | 0.00 | 59 | 1017.5 |
| 20260502034540 | 10 | 313 | 0.0 | 9.7 | 0.00 | 0.00 | 0.00 | 58 | 1017.5 |
| 20260502033044 | 11 | 337 | 3.2 | 9.7 | 0.00 | 0.00 | 0.00 | 59 | 1017.3 |